Location: Hochstatterhof
(48.7256°N, 10.3487°E)
Time: 02:58:50
(UTC+00:00)

Cosmos 2084 Rocket - Pass Details

Date: 26 September 2023
Orbit: 501 x 654 km, 62.8° (Epoch: 04 December)

Event Time Altitude Azimuth Distance (km) Brightness Sun altitude
Exits shadow 04:10:16 - 222° (SW) 1,892 5.6 -10.7°
Reaches altitude 10° 04:10:26 10° 222° (SW) 1,826 5.5 -10.6°
Maximum altitude 04:14:32 87° 313° (NW) 541 3.2 -10.0°
Drops below altitude 10° 04:18:29 10° 42° (NE) 1,758 6.7 -9.3°
Sets 04:20:37 0° 43° (NE) 2,633 7.7 -9.0°
